Tracking 27112 objects as of 28-Mar-2023
HD Live streaming from Space Station
objects crossing your sky now

STARLINK-4344

Track STARLINK-4344 now!
10-day predictions
STARLINK-4344 is classified as:


NORAD ID: 53072
Int'l Code: 2022-077AF
Perigee: 567.6 km
Apogee: 572.7 km
Inclination: 97.7 °
Period: 95.9 minutes
Semi major axis: 6941 km
RCS: Unknown
Launch date: July 11, 2022
Source: United States (US)
Launch site: AIR FORCE WESTERN TEST RANGE (AFWTR)
Your satellite tracking list
Your tracking list is empty




NASA's NSSDC Master Catalog

Two Line Element Set (TLE):
1 53072U 22077AF  23086.50182787  .00003237  00000-0  25641-3 0  9998
2 53072  97.6542 268.7592 0003634  70.4108 289.7508 15.01264304 39150
Source of the keplerian elements: AFSPC